sat.trackr.live / text

‹ back to catalog

GLOBALSTAR M083

NORAD 37739 · 2011-033A

PAYLOAD ACTIVE UNKNOWN

§ Identity

Operator
Country
GLOB
Launch date
2011-07-13
Launch site
TYMSC
Launch vehicle
Mass (kg)
RCS (m²)
4.67

Purposes: comms

External: N2YO · Heavens-Above · Gunter

§ Orbital elements

Epoch: 2026-09-12T02:32:45.319776Z

Period
114.08 min
Inclination
51.9844°
Eccentricity
0.0000639
Mean motion
12.62259053 rev/d
Perigee alt
1,413.1 km
Apogee alt
1,414.1 km
Semi-major
7,791.8 km
B*
1.9018e-4
RAAN
107.8225°
Arg perigee
101.1771°
Mean anomaly
75.4885°
Rev number
70,392

§ Raw data

GLOBALSTAR M0831 37739U 11033A   26255.10608009 -.00000070  00000+0  19018-3 0  99902 37739  51.9844 107.8225 0000639 101.1771  75.4885 12.62259053703926

JSON: /api/v1/satellites/37739 · /tle

For live sub-satellite position, see the globe view (requires WebGL).

§ Visibility from observer

Set your observer location to see the next 7 days of passes ≥ 10°. The values pass through the URL so the page stays shareable.

No JS? Fill the form by hand. The geolocation button needs JavaScript.